| time (UTC) | temp F | wind direction | speed MPH | gust MPH | rain 1hr in | rain 24hr in | rain mn in | humidity % | barometer mb |
| 20260905041513 | 53 | 311 | 0.0 | 0.0 | 0.00 | 0.03 | 0.03 | 93 | 1011.7 |
| 20260905040018 | 53 | 311 | 0.0 | 0.0 | 0.00 | 0.03 | 0.03 | 93 | 1011.5 |
| 20260905034509 | 54 | 311 | 0.0 | 0.0 | 0.00 | 0.03 | 0.03 | 93 | 1011.3 |
| 20260905033008 | 54 | 311 | 0.0 | 0.0 | 0.00 | 0.03 | 0.03 | 92 | 1011.2 |
| 20260905031506 | 55 | 311 | 0.0 | 0.0 | 0.00 | 0.03 | 0.03 | 92 | 1011.2 |
| 20260905030007 | 55 | 311 | 0.0 | 0.0 | 0.00 | 0.03 | 0.03 | 91 | 1011.2 |
| 20260905024512 | 56 | 311 | 0.0 | 0.0 | 0.00 | 0.03 | 0.03 | 90 | 1011.1 |
| 20260905023006 | 57 | 311 | 0.0 | 1.0 | 0.00 | 0.03 | 0.03 | 88 | 1011.1 |
| 20260905021507 | 58 | 311 | 0.0 | 1.0 | 0.00 | 0.03 | 0.03 | 87 | 1011.2 |
| 20260905020004 | 59 | 311 | 0.0 | 2.0 | 0.00 | 0.03 | 0.03 | 85 | 1011.1 |
| 20260905014503 | 59 | 126 | 0.0 | 1.0 | 0.00 | 0.03 | 0.03 | 85 | 1010.9 |
| 20260905013002 | 59 | 126 | 0.0 | 2.0 | 0.00 | 0.03 | 0.03 | 85 | 1010.8 |
| 20260905011501 | 59 | 103 | 0.0 | 3.0 | 0.00 | 0.03 | 0.03 | 85 | 1010.7 |
| 20260905010113 | 60 | 336 | 0.0 | 1.0 | 0.00 | 0.03 | 0.03 | 84 | 1010.5 |
| 20260905004612 | 60 | 335 | 0.0 | 2.0 | 0.00 | 0.03 | 0.03 | 82 | 1010.5 |
| 20260905003058 | 61 | 328 | 0.0 | 2.0 | 0.00 | 0.03 | 0.03 | 80 | 1010.5 |
| 20260905001557 | 62 | 97 | 0.0 | 3.0 | 0.00 | 0.03 | 0.03 | 79 | 1010.4 |
| 20260905000056 | 62 | 333 | 0.0 | 2.0 | 0.00 | 0.03 | 0.03 | 77 | 1010.4 |
| 20260904234554 | 62 | 9 | 1.0 | 4.0 | 0.00 | 0.03 | 0.03 | 75 | 1010.4 |
| 20260904233058 | 63 | 28 | 1.0 | 6.0 | 0.00 | 0.03 | 0.03 | 72 | 1010.3 |
| 20260904231552 | 62 | 278 | 1.0 | 6.0 | 0.00 | 0.03 | 0.03 | 76 | 1010.2 |
| 20260904230051 | 64 | 156 | 1.0 | 4.0 | 0.00 | 0.03 | 0.03 | 74 | 1010.1 |
| 20260904224552 | 64 | 179 | 1.0 | 6.0 | 0.00 | 0.03 | 0.03 | 70 | 1010.0 |
| 20260904223049 | 65 | 263 | 0.0 | 4.0 | 0.00 | 0.03 | 0.03 | 74 | 1009.7 |
| 20260904221553 | 65 | 53 | 1.0 | 5.0 | 0.00 | 0.03 | 0.03 | 69 | 1009.7 |
| 20260904220049 | 67 | 136 | 1.0 | 3.0 | 0.00 | 0.03 | 0.03 | 66 | 1009.4 |
| 20260904214545 | 66 | 303 | 1.0 | 5.0 | 0.00 | 0.06 | 0.03 | 66 | 1009.3 |
| 20260904213043 | 67 | 101 | 0.0 | 4.0 | 0.00 | 0.06 | 0.03 | 67 | 1009.2 |
| 20260904211540 | 66 | 242 | 1.0 | 4.0 | 0.00 | 0.06 | 0.03 | 70 | 1009.3 |
| 20260904210043 | 67 | 262 | 0.0 | 3.0 | 0.00 | 0.06 | 0.03 | 64 | 1009.1 |
| 20260904204533 | 66 | 57 | 1.0 | 4.0 | 0.00 | 0.06 | 0.03 | 70 | 1009.1 |
| 20260904203028 | 63 | 63 | 1.0 | 2.0 | 0.00 | 0.06 | 0.03 | 79 | 1009.3 |
| 20260904201526 | 62 | 52 | 0.0 | 1.0 | 0.00 | 0.06 | 0.03 | 75 | 1009.3 |
| 20260904200024 | 63 | 54 | 0.0 | 2.0 | 0.00 | 0.06 | 0.03 | 76 | 1009.4 |
| 20260904194524 | 62 | 53 | 0.0 | 2.0 | 0.00 | 0.06 | 0.03 | 78 | 1009.5 |
| 20260904193020 | 61 | 53 | 1.0 | 3.0 | 0.00 | 0.06 | 0.03 | 81 | 1009.8 |
| 20260904191518 | 60 | 300 | 0.0 | 2.0 | 0.00 | 0.06 | 0.03 | 89 | 1009.9 |
| 20260904190019 | 60 | 300 | 0.0 | 1.0 | 0.00 | 0.06 | 0.03 | 90 | 1009.8 |
| 20260904184512 | 60 | 304 | 0.0 | 2.0 | 0.00 | 0.06 | 0.03 | 87 | 1009.8 |
| 20260904183014 | 60 | 300 | 1.0 | 3.0 | 0.00 | 0.06 | 0.03 | 82 | 1009.7 |
| 20260904181507 | 60 | 34 | 0.0 | 2.0 | 0.00 | 0.06 | 0.03 | 87 | 1009.6 |
| 20260904180003 | 59 | 323 | 0.0 | 2.0 | 0.00 | 0.15 | 0.03 | 90 | 1009.5 |
| 20260904174608 | 57 | 51 | 0.0 | 1.0 | 0.00 | 0.15 | 0.03 | 93 | 1009.5 |
| 20260904173104 | 57 | 51 | 0.0 | 1.0 | 0.00 | 0.15 | 0.03 | 93 | 1009.3 |
| 20260904171602 | 56 | 51 | 0.0 | 1.0 | 0.00 | 0.15 | 0.03 | 93 | 1009.3 |
| 20260904170052 | 56 | 51 | 0.0 | 1.0 | 0.00 | 0.15 | 0.03 | 94 | 1009.3 |
| 20260904164554 | 55 | 51 | 0.0 | 2.0 | 0.00 | 0.18 | 0.03 | 96 | 1009.2 |
| 20260904163050 | 55 | 51 | 0.0 | 1.0 | 0.00 | 0.18 | 0.03 | 96 | 1009.3 |
| 20260904161544 | 55 | 51 | 0.0 | 0.0 | 0.00 | 0.18 | 0.03 | 96 | 1009.1 |
| 20260904160042 | 55 | 51 | 0.0 | 0.0 | 0.00 | 0.18 | 0.03 | 96 | 1009.0 |
| 20260904154541 | 54 | 51 | 0.0 | 0.0 | 0.00 | 0.19 | 0.03 | 96 | 1008.9 |
| 20260904153039 | 54 | 51 | 0.0 | 0.0 | 0.00 | 0.19 | 0.03 | 96 | 1008.8 |
| 20260904151538 | 54 | 51 | 0.0 | 0.0 | 0.00 | 0.19 | 0.03 | 96 | 1008.6 |
| 20260904150038 | 53 | 51 | 0.0 | 0.0 | 0.01 | 0.19 | 0.03 | 96 | 1008.5 |
| 20260904144530 | 53 | 51 | 0.0 | 0.0 | 0.02 | 0.21 | 0.03 | 96 | 1008.4 |
| 20260904143027 | 53 | 51 | 0.0 | 0.0 | 0.03 | 0.21 | 0.03 | 96 | 1008.3 |
| 20260904141532 | 53 | 51 | 0.0 | 1.0 | 0.03 | 0.21 | 0.03 | 96 | 1008.2 |
| 20260904140024 | 52 | 51 | 0.0 | 0.0 | 0.02 | 0.20 | 0.02 | 96 | 1008.1 |
| 20260904134527 | 52 | 51 | 0.0 | 0.0 | 0.01 | 0.28 | 0.01 | 96 | 1008.1 |
| 20260904133021 | 52 | 51 | 0.0 | 0.0 | 0.00 | 0.27 | 0.00 | 96 | 1007.9 |
| 20260904131518 | 52 | 51 | 0.0 | 1.0 | 0.00 | 0.27 | 0.00 | 96 | 1007.7 |
| 20260904130018 | 52 | 51 | 0.0 | 0.0 | 0.00 | 0.27 | 0.00 | 96 | 1007.6 |
| 20260904124516 | 52 | 51 | 0.0 | 0.0 | 0.00 | 0.28 | 0.00 | 95 | 1007.5 |
| 20260904123015 | 52 | 51 | 0.0 | 0.0 | 0.00 | 0.28 | 0.00 | 96 | 1007.5 |
| 20260904121513 | 52 | 51 | 0.0 | 0.0 | 0.00 | 0.28 | 0.00 | 95 | 1007.3 |
| 20260904120012 | 52 | 51 | 0.0 | 0.0 | 0.00 | 0.28 | 0.00 | 95 | 1007.2 |
| 20260904114511 | 52 | 51 | 0.0 | 0.0 | 0.00 | 0.28 | 0.00 | 95 | 1007.2 |
| 20260904113013 | 52 | 51 | 0.0 | 0.0 | 0.00 | 0.28 | 0.00 | 95 | 1007.0 |
| 20260904111509 | 52 | 51 | 0.0 | 0.0 | 0.00 | 0.28 | 0.00 | 95 | 1006.8 |
| 20260904110007 | 52 | 51 | 0.0 | 1.0 | 0.00 | 0.28 | 0.00 | 95 | 1006.7 |
| 20260904104512 | 52 | 51 | 0.0 | 0.0 | 0.00 | 0.28 | 0.00 | 95 | 1006.7 |
| 20260904103007 | 52 | 51 | 0.0 | 0.0 | 0.00 | 0.28 | 0.00 | 95 | 1006.6 |
| 20260904101505 | 52 | 51 | 0.0 | 0.0 | 0.00 | 0.28 | 0.00 | 95 | 1006.6 |
| 20260904100006 | 52 | 51 | 0.0 | 0.0 | 0.00 | 0.28 | 0.00 | 95 | 1006.5 |
| 20260904094503 | 52 | 51 | 0.0 | 1.0 | 0.00 | 0.28 | 0.00 | 95 | 1006.5 |
| 20260904093001 | 52 | 51 | 0.0 | 2.0 | 0.00 | 0.28 | 0.00 | 95 | 1006.4 |
| 20260904091610 | 52 | 51 | 0.0 | 0.0 | 0.00 | 0.28 | 0.00 | 95 | 1006.5 |
| 20260904090058 | 52 | 51 | 0.0 | 0.0 | 0.00 | 0.28 | 0.00 | 95 | 1006.5 |
| 20260904084557 | 53 | 51 | 0.0 | 1.0 | 0.00 | 0.28 | 0.00 | 95 | 1006.5 |
| 20260904083109 | 53 | 51 | 0.0 | 0.0 | 0.00 | 0.28 | 0.00 | 95 | 1006.5 |
| 20260904081555 | 53 | 51 | 0.0 | 0.0 | 0.00 | 0.28 | 0.00 | 95 | 1006.4 |